Stations météo

réclame
Mon MeteoGroup
Fair Isle, Grande-Bretagne (3008): Température de l'air & dewpoint: 18.02.2018 00:00:00 - 24.02.2018 00:00:00 (GMT)Fair Isle, Grande-Bretagne (3008): Température de l'air -20cm & Température de l'air -100cm: 18.02.2018 00:00:00 - 24.02.2018 00:00:00 (GMT)Fair Isle, Grande-Bretagne (3008): Vitesse du vent & gusts: 18.02.2018 00:00:00 - 24.02.2018 00:00:00 (GMT)Fair Isle, Grande-Bretagne (3008): Direction du vent: 18.02.2018 00:00:00 - 24.02.2018 00:00:00 (GMT)Fair Isle, Grande-Bretagne (3008): reduced air pressure: 18.02.2018 00:00:00 - 24.02.2018 00:00:00 (GMT)Fair Isle, Grande-Bretagne (3008): visibility: 18.02.2018 00:00:00 - 24.02.2018 00:00:00 (GMT)Fair Isle, Grande-Bretagne (3008): Quantités de précipitations: 18.02.2018 00:00:00 - 24.02.2018 00:00:00 (GMT)
Date & Time tt [°C] td [°C] tt -20cm [°C] tt -100cm [°C] ff [km/h] ff [knt] fx [km/h] fx [knt] dd ppp [hPa] vv [km] rr [mm]
24.02.2018 00:00:00 - - - - - - - - - - - -
23.02.2018 23:00:00 5,0 1,1 - - 46 25 65 35 SSE 1022,6 18 0,0
23.02.2018 22:00:00 4,9 0,1 - - 48 26 70 38 S 1022,5 25 0,0
23.02.2018 21:00:00 4,8 0,5 - - 44 24 65 35 SSE 1022,2 17 0,0
23.02.2018 20:00:00 4,5 0,2 - - 52 28 70 38 S 1022,1 22 0,0
23.02.2018 19:00:00 4,7 0,1 - - 48 26 67 36 S 1021,6 19 0,0
23.02.2018 18:00:00 4,6 0,9 - - 41 22 55 30 S 1021,4 15 0,0
23.02.2018 17:00:00 4,5 0,6 - - 39 21 55 30 S 1020,9 15 0,0
23.02.2018 16:00:00 4,4 0,0 - - 41 22 59 32 S 1020,6 14 0,0
23.02.2018 15:00:00 4,0 0,4 - - 39 21 54 29 S 1020,7 13 0,0
23.02.2018 14:00:00 4,1 0,6 - - 41 22 54 29 S 1020,9 10 0,0
23.02.2018 13:00:00 4,1 0,7 - - 39 21 52 28 S 1021,0 10 0,0
23.02.2018 12:00:00 4,2 0,8 - - 37 20 50 27 S 1021,0 10 0,0
23.02.2018 11:00:00 4,1 0,5 - - 37 20 50 27 S 1020,7 13 0,0
23.02.2018 10:00:00 4,2 0,3 - - 37 20 46 25 S 1020,6 17 0,0
23.02.2018 09:00:00 4,4 1,3 5,0 5,2 31 17 - - S 1020,5 14 0,0
23.02.2018 08:00:00 4,1 1,2 - - 31 17 - - S 1020,4 14 0,0
23.02.2018 07:00:00 4,1 1,1 - - 31 17 - - S 1020,3 16 0,0
23.02.2018 06:00:00 4,3 0,9 - - 35 19 46 25 S 1020,3 15 0,0
23.02.2018 05:00:00 4,4 0,7 - - 35 19 48 26 S 1020,1 19 0,0
23.02.2018 04:00:00 4,5 1,0 - - 37 20 48 26 S 1020,3 16 0,0
23.02.2018 03:00:00 4,6 1,2 - - 37 20 52 28 S 1020,6 19 0,0
23.02.2018 02:00:00 4,9 1,7 - - 39 21 50 27 S 1020,6 18 0,0
23.02.2018 01:00:00 4,6 1,8 - - 37 20 52 28 S 1020,4 16 0,0
23.02.2018 00:00:00 4,8 1,9 - - 41 22 54 29 S 1020,5 18 0,0
22.02.2018 23:00:00 4,8 2,4 - - 37 20 52 28 S 1020,5 16 0,0
22.02.2018 22:00:00 4,8 2,0 - - 41 22 54 29 S 1020,6 17 0,0
22.02.2018 21:00:00 5,1 2,1 - - 39 21 54 29 S 1020,8 18 0,0
22.02.2018 20:00:00 5,0 2,2 - - 39 21 55 30 S 1021,0 19 0,0
22.02.2018 19:00:00 4,9 2,0 - - 39 21 55 30 S 1021,0 19 0,0
22.02.2018 18:00:00 4,9 1,6 - - 42 23 57 31 S 1021,1 20 0,0
22.02.2018 17:00:00 5,0 1,3 - - 42 23 57 31 S 1021,1 18 0,0
22.02.2018 16:00:00 5,5 1,6 - - 48 26 63 34 S 1021,2 15 0,0
22.02.2018 15:00:00 5,8 2,3 - - 44 24 59 32 S 1021,5 17 0,0
22.02.2018 14:00:00 5,6 2,3 - - 42 23 55 30 S 1022,0 15 0,0
22.02.2018 13:00:00 5,6 2,2 - - 41 22 57 31 S 1022,6 19 0,0
22.02.2018 12:00:00 5,8 2,6 - - 37 20 55 30 S 1022,9 17 0,0
22.02.2018 11:00:00 5,6 2,0 - - 42 23 57 31 S 1023,1 19 0,0
22.02.2018 10:00:00 5,2 2,0 - - 42 23 55 30 SSE 1023,6 19 0,0
22.02.2018 09:00:00 5,1 2,2 5,0 5,2 39 21 52 28 S 1023,9 28 0,0
22.02.2018 08:00:00 4,6 2,2 - - 37 20 48 26 S 1024,3 20 0,0
22.02.2018 07:00:00 4,6 2,3 - - 35 19 - - SSE 1024,5 16 0,0
22.02.2018 06:00:00 4,7 2,5 - - 29 16 - - S 1024,6 17 0,0
22.02.2018 05:00:00 4,8 2,3 - - 34 18 - - S 1024,6 18 0,0
22.02.2018 04:00:00 4,7 2,4 - - 31 17 - - SSE 1025,0 18 0,0
22.02.2018 03:00:00 4,9 2,3 - - 31 17 - - S 1025,5 17 0,0
22.02.2018 02:00:00 4,8 2,2 - - 28 15 - - S 1025,8 20 0,0
22.02.2018 01:00:00 4,7 2,3 - - 28 15 - - S 1026,2 21 0,0
22.02.2018 00:00:00 4,8 2,6 - - 26 14 - - SSE 1026,4 28 0,0
21.02.2018 23:00:00 4,8 2,4 - - 22 12 - - SSE 1026,6 28 0,0
21.02.2018 22:00:00 4,8 2,5 - - 21 11 - - SSE 1026,7 22 0,0
21.02.2018 21:00:00 4,7 2,6 - - 18 10 - - SSE 1027,3 26 0,0
21.02.2018 20:00:00 4,5 2,5 - - 13 7 - - S 1027,6 25 0,0
21.02.2018 19:00:00 4,1 2,2 - - 13 7 - - S 1027,7 28 0,0
21.02.2018 18:00:00 4,1 2,2 - - 13 7 - - S 1027,6 27 0,0
21.02.2018 17:00:00 4,9 2,2 - - 9 5 - - SSW 1027,4 20 0,0
21.02.2018 16:00:00 5,9 2,5 - - 11 6 - - SSW 1027,4 19 0,0
21.02.2018 15:00:00 6,8 2,4 - - 9 5 - - SSW 1027,5 28 0,0
21.02.2018 14:00:00 7,1 3,0 - - 9 5 - - SSW 1028,0 25 0,0
21.02.2018 13:00:00 7,0 2,8 - - 8 4 - - W 1028,3 30 0,0
21.02.2018 12:00:00 7,3 2,6 - - 4 2 - - WSW 1028,4 20 0,0
21.02.2018 11:00:00 5,9 2,1 - - 8 4 - - NW 1028,5 30 0,0
21.02.2018 10:00:00 6,3 2,8 - - 8 4 - - W 1028,7 19 0,0
21.02.2018 09:00:00 5,5 2,8 5,0 5,0 5 3 - - WNW 1028,7 20 0,0
21.02.2018 08:00:00 4,5 2,1 - - 8 4 - - WNW 1028,4 15 -
21.02.2018 07:00:00 5,0 1,5 - - 9 5 - - WNW - - 0,0
21.02.2018 06:00:00 4,4 0,7 - - 9 5 - - WNW - 20 0,0
21.02.2018 05:00:00 5,1 1,5 - - 11 6 - - NW - - 0,0
21.02.2018 04:00:00 5,7 2,7 - - 15 8 - - WNW 1027,9 12 0,0
21.02.2018 03:00:00 5,6 1,6 - - 13 7 - - NW 1027,9 14 0,0
21.02.2018 02:00:00 5,9 1,5 - - 18 10 - - WNW 1028,0 14 0,0
21.02.2018 01:00:00 6,0 2,6 - - 18 10 - - WNW 1028,0 11 0,0
21.02.2018 00:00:00 5,9 2,1 - - 22 12 - - WNW 1027,9 12 0,0
20.02.2018 23:00:00 6,0 2,9 - - 15 8 - - WNW 1027,4 12 0,0
20.02.2018 22:00:00 5,6 2,5 - - 21 11 - - WNW 1027,1 15 0,0
20.02.2018 21:00:00 6,0 2,8 - - 21 11 - - WNW 1026,8 12 0,0
20.02.2018 20:00:00 6,2 1,9 - - 22 12 - - WNW 1026,4 13 0,0
20.02.2018 19:00:00 6,4 2,6 - - 21 11 - - WNW 1026,0 13 0,0
20.02.2018 18:00:00 6,4 3,4 - - 24 13 - - WNW 1025,3 11 0,0
20.02.2018 17:00:00 6,6 3,9 - - 24 13 - - WNW 1024,6 10 0,0
20.02.2018 16:00:00 6,7 3,7 - - 21 11 - - WNW 1024,0 11 0,0
20.02.2018 15:00:00 6,8 4,1 - - 26 14 - - WNW 1023,6 12 0,0
20.02.2018 14:00:00 7,4 5,6 - - 18 10 - - WNW 1023,3 12 0,0
20.02.2018 13:00:00 7,5 5,6 - - 18 10 - - WNW 1022,8 10 0,0
20.02.2018 12:00:00 7,7 6,1 - - 18 10 - - W 1022,2 10 0,0
20.02.2018 11:00:00 7,5 6,2 - - 16 9 - - WNW 1021,1 12 0,0
20.02.2018 10:00:00 6,7 5,7 - - 9 5 - - W 1020,7 8 0,0
20.02.2018 09:00:00 6,0 4,8 4,9 5,0 9 5 - - W 1020,1 17 0,0
20.02.2018 08:00:00 6,0 5,0 - - 15 8 - - W 1019,5 6 0,0
20.02.2018 07:00:00 5,8 4,1 - - 18 10 - - WNW 1018,5 15 0,0
20.02.2018 06:00:00 5,7 3,9 - - 15 8 - - NW 1017,6 15 0,2
20.02.2018 05:00:00 5,5 4,9 - - 21 11 - - NNW 1016,8 10 0,4
20.02.2018 04:00:00 5,5 5,1 - - 22 12 52 28 NW 1016,4 7 0,4
20.02.2018 03:00:00 5,5 5,3 - - 26 14 46 25 WNW 1015,9 9 2,6
20.02.2018 02:00:00 5,7 5,5 - - 31 17 48 26 SSE 1015,7 3,4 1,2
20.02.2018 01:00:00 5,7 5,5 - - 39 21 55 30 SSE 1015,9 3,3 0,6
20.02.2018 00:00:00 5,6 5,2 - - 41 22 59 32 SSE 1016,1 2,9 0,4
19.02.2018 23:00:00 5,7 5,2 - - 39 21 61 33 SE 1016,2 4,5 0,2
19.02.2018 22:00:00 5,6 5,0 - - 41 22 57 31 SSE 1016,5 7 0,6
19.02.2018 21:00:00 5,6 4,1 - - 41 22 55 30 SE 1016,8 3,8 0,4
19.02.2018 20:00:00 5,7 4,3 - - 39 21 55 30 SE 1016,9 12 0,2
19.02.2018 19:00:00 5,8 4,6 - - 31 17 48 26 SE 1016,9 13 0,8
19.02.2018 18:00:00 5,8 4,5 - - 34 18 54 29 SE 1017,0 11 0,2
19.02.2018 17:00:00 5,9 4,8 - - 28 15 - - SE 1017,1 10 0,2
19.02.2018 16:00:00 6,0 4,8 - - 26 14 - - SE 1017,1 9 0,4
19.02.2018 15:00:00 6,2 4,6 - - 28 15 - - SE 1017,2 11 0,2
19.02.2018 14:00:00 6,4 4,4 - - 29 16 50 27 SE 1017,0 22 0,0
19.02.2018 13:00:00 6,5 4,7 - - 29 16 46 25 SE 1016,9 19 0,0
19.02.2018 12:00:00 6,4 5,0 - - 31 17 48 26 SE 1016,7 15 0,0
19.02.2018 11:00:00 6,4 5,1 - - 34 18 48 26 SE 1016,5 14 0,0
19.02.2018 10:00:00 6,3 4,9 - - 28 15 46 25 ESE 1016,5 17 0,0
19.02.2018 09:00:00 6,2 4,5 4,7 5,0 26 14 46 25 ESE 1016,3 18 0,0
19.02.2018 08:00:00 6,2 4,1 - - 29 16 48 26 ESE 1016,1 21 0,0
19.02.2018 07:00:00 6,2 4,2 - - 29 16 50 27 ESE 1015,8 19 0,0
19.02.2018 06:00:00 6,2 3,7 - - 31 17 50 27 SE 1015,0 28 0,0
19.02.2018 05:00:00 6,1 3,4 - - 26 14 46 25 SE 1015,1 30 0,0
19.02.2018 04:00:00 6,0 3,1 - - 24 13 - - ESE 1015,0 29 0,0
19.02.2018 03:00:00 5,8 2,9 - - 31 17 48 26 SE 1015,0 30 0,0
19.02.2018 02:00:00 5,9 3,5 - - 26 14 - - SE 1015,0 25 0,0
19.02.2018 01:00:00 5,8 3,6 - - 24 13 - - ESE 1015,2 26 0,0
19.02.2018 00:00:00 5,9 3,8 - - 24 13 - - SE 1015,2 23 0,0
18.02.2018 23:00:00 5,8 3,8 - - 21 11 - - SE 1015,2 22 0,0
18.02.2018 22:00:00 5,9 3,8 - - 22 12 - - SE 1015,5 30 0,0
18.02.2018 21:00:00 5,7 3,2 - - 21 11 - - SE 1015,8 29 0,0
18.02.2018 20:00:00 5,6 2,7 - - 18 10 - - SE 1015,8 45 0,0
18.02.2018 19:00:00 5,5 2,9 - - 15 8 - - SE 1016,0 50 0,0
18.02.2018 18:00:00 5,0 2,2 - - 18 10 - - SSE 1016,0 40 0,0
18.02.2018 17:00:00 4,7 2,3 - - 15 8 - - S 1016,1 40 0,0
18.02.2018 16:00:00 5,1 2,6 - - 15 8 - - S 1016,5 45 0,0
18.02.2018 15:00:00 5,7 2,8 - - 15 8 - - SSE 1016,5 40 0,0
18.02.2018 14:00:00 5,5 2,3 - - 16 9 - - S 1016,9 45 0,0
18.02.2018 13:00:00 6,0 2,2 - - 16 9 - - SSW 1017,0 35 0,0
18.02.2018 12:00:00 5,7 2,7 - - 13 7 - - SSW 1017,0 30 0,0
18.02.2018 11:00:00 5,5 2,7 - - 16 9 - - SSW 1016,9 28 0,0
18.02.2018 10:00:00 5,0 2,4 - - 16 9 - - SW 1016,7 23 0,0
18.02.2018 09:00:00 4,8 2,6 4,7 5,0 18 10 - - SW 1016,7 29 0,0
18.02.2018 08:00:00 4,2 1,9 - - 16 9 - - SW 1016,3 21 0,0
18.02.2018 07:00:00 4,3 2,6 - - 21 11 - - SW - - 0,0
18.02.2018 06:00:00 4,4 1,8 - - 26 14 - - WSW - 30 0,0
18.02.2018 05:00:00 4,1 1,5 - - 28 15 - - WSW - - 0,0
18.02.2018 04:00:00 4,2 2,0 - - 22 12 - - SW - - 0,0
18.02.2018 03:00:00 4,0 1,6 - - 21 11 - - SW 1015,8 22 0,0
18.02.2018 02:00:00 4,1 0,2 - - 21 11 - - WSW 1015,4 26 0,0
18.02.2018 01:00:00 4,6 1,0 - - 22 12 - - W 1015,1 29 0,0
18.02.2018 00:00:00 4,5 2,3 - - 21 11 - - WSW 1014,6 19 0,0

tt = Température de l'air
td = dewpoint
tt -20cm = Température de l'air -20cm
tt -100cm = Température de l'air -100cm
ff = Vitesse du vent
fx = gusts
dd = Direction du vent
ppp = reduced air pressure
vv = visibility
rr = Quantités de précipitations

stations d'obs. à proximité